Temperature
18 19 19 19 20 20 19 18 17 18 18 18 18 18 19 19 19 19 19 19 19 19 19 19 18 18 18 18 18 17 17 17 17 17 16 16 16 16 16 16 16 16 15 15
18 19 19 19 19 20 20 19 19 19 18 19 20 19 19 19 19 18 19 19 19 19 19 18 18 18 18 18 18 17 17 17 17 17 16 16 16 16 16 16 16 15 15 15
16 18 19 18 19 19 19 19 19 18 18 18 18 18 18 18 19 18 18 19 19 19 18 18 18 18 18 18 18 17 17 17 17 17 16 16 16 16 16 15 15 15 15 15
15 17 17 18 19 20 19 19 19 18 18 19 19 19 19 19 19 18 18 18 18 18 18 18 18 18 18 18 18 17 17 17 17 17 16 16 16 16 16 15 15 15 15 15
14 16 17 18 19 19 19 18 18 18 18 19 19 18 18 19 19 18 18 18 18 19 19 19 18 18 18 18 17 17 17 17 17 16 16 16 16 15 15 15 15 15 15 15
14 16 16 17 19 20 19 18 18 18 18 18 18 16 16 18 18 18 18 18 18 18 18 18 18 18 18 17 17 17 17 17 17 16 16 16 16 15 15 15 15 15 15 14
14 15 15 17 19 19 17 17 18 18 18 18 18 17 19 18 18 18 18 18 18 18 18 18 18 18 18 17 17 17 17 17 16 16 16 16 16 15 15 15 15 14 14 14
14 15 15 18 18 17 17 19 19 19 19 19 19 19 19 18 18 18 18 18 18 18 18 18 18 18 18 17 17 17 17 17 16 16 16 15 15 15 15 15 14 14 14 14
14 15 17 19 19 19 19 19 19 19 19 19 18 18 18 18 18 18 18 18 18 18 18 18 18 18 17 17 17 17 17 16 16 16 16 15 15 15 14 14 14 14 14 14
14 15 17 18 19 19 19 19 19 19 19 19 18 18 18 17 17 17 17 17 17 17 17 17 17 17 17 17 17 17 17 16 16 16 15 15 15 14 14 14 14 13 13 13
14 15 16 17 18 19 19 19 19 18 18 18 18 17 17 17 17 17 17 17 17 17 17 17 17 17 17 17 17 16 16 16 16 15 15 15 14 14 14 14 14 13 13 13
14 16 15 17 18 18 18 18 18 18 17 17 17 17 17 17 17 17 17 16 16 16 16 16 16 16 16 16 16 16 16 16 15 15 15 14 14 14 13 13 13 13 13 13
17 18 17 17 17 18 18 18 18 17 17 17 17 17 16 16 16 16 16 16 16 16 16 16 16 16 16 16 16 16 16 15 15 15 14 14 14 14 13 13 12 12 12 12
17 17 17 17 17 17 17 17 17 17 16 16 16 16 16 16 16 15 15 16 15 15 15 15 15 15 15 15 15 15 15 15 15 14 14 14 13 13 13 13 13 12 12 12
16 17 17 17 17 17 17 16 16 16 16 15 15 15 15 15 15 15 15 15 15 15 15 15 15 15 15 15 15 15 15 14 14 14 14 13 13 13 12 12 12 12 12 11
16 16 16 16 16 16 16 16 15 15 15 15 15 15 15 15 14 14 14 14 14 14 14 14 14 14 14 14 14 14 14 14 14 13 13 13 12 12 12 12 12 11 11 11
15 15 15 15 15 15 15 15 15 15 14 14 14 14 14 14 14 14 14 14 14 14 14 14 14 14 14 14 14 14 13 13 13 13 12 12 12 12 11 11 11 11 10 10
15 15 15 15 15 15 15 14 14 14 14 14 14 14 13 13 13 13 13 13 13 13 13 13 13 13 13 13 13 13 13 13 12 12 12 12 12 11 11 11 11 10 10 10
14 14 14 14 14 14 14 14 14 14 13 13 13 13 13 13 13 13 13 12 12 12 13 13 13 13 12 12 12 12 12 12 12 12 11 11 11 11 11 10 10 10 10 9
14 14 14 14 14 14 13 13 13 13 13 13 13 12 12 12 12 12 12 12 12 12 12 12 12 12 12 12 12 12 11 11 11 11 11 11 10 10 10 10 10 9 9 9
13 13 13 13 13 13 13 13 12 12 12 12 12 12 12 11 11 11 11 11 11 11 11 11 11 11 11 11 11 11 11 11 11 11 10 10 10 10 9 9 9 9 8 8
12 12 12 12 12 12 12 12 12 12 11 11 11 11 11 11 11 11 11 11 11 11 10 10 11 11 11 10 10 10 10 10 10 10 10 10 9 9 9 9 9 8 8 8
12 12 12 12 12 11 11 11 11 11 11 11 11 11 11 10 10 10 10 10 10 10 10 10 10 10 10 10 10 10 10 10 10 9 9 9 9 9 8 8 8 8 7 7
11 11 11 11 11 11 10 10 10 10 10 10 10 10 10 10 10 10 10 9 9 9 9 9 9 9 9 9 9 9 9 9 9 9 8 8 8 8 8 7 7 7 7 6
10 10 10 10 10 10 10 10 10 10 9 9 9 9 9 9 9 9 9 9 9 9 9 9 9 9 9 9 9 8 8 8 8 8 8 8 7 7 7 7 7 6 6 6
9 9 9 9 9 9 9 9 9 9 9 9 9 9 8 8 8 8 8 8 8 8 8 8 8 8 8 8 8 8 7 7 7 7 7 7 7 7 7 6 6 6 5 5
8 9 9 9 8 8 8 8 8 8 8 8 8 8 8 8 8 8 8 7 7 7 7 7 7 7 7 7 7 7 7 7 7 7 7 6 6 6 6 6 5 5 5 5
Wind_Speed
5 5 4 4 4 4 4 5 6 6 6 7 7 7 6 4 3 4 5 7 8 8 7 7 6 6 6 6 6 6 7 7 6 6 5 5 5 4 4 4 4 4 4 3
2 2 2 3 5 5 5 4 4 3 5 6 4 4 3 4 4 4 5 7 7 8 7 7 8 7 6 6 6 6 7 7 6 5 5 5 5 5 5 4 4 4 4 4
3 4 1 4 6 6 4 3 4 5 6 2 2 5 6 5 5 5 5 6 6 7 8 8 8 8 8 7 6 6 7 6 6 6 6 6 6 5 5 5 4 4 3 3
1 1 4 7 5 4 5 2 3 4 3 4 5 6 6 5 6 5 4 5 6 6 7 7 7 7 7 6 6 7 7 6 6 6 6 5 5 5 5 4 4 3 3 3
3 3 5 6 3 3 4 3 3 3 2 2 2 3 1 1 3 5 5 4 5 6 6 6 7 7 7 6 6 7 7 6 6 6 6 6 6 5 4 4 4 3 3 3
4 3 6 6 6 2 4 3 4 3 4 3 4 2 4 3 2 2 2 3 4 4 4 5 6 7 7 7 7 7 8 7 6 6 7 6 6 5 4 4 4 4 3 3
5 5 6 6 4 2 4 6 4 4 4 5 5 6 5 3 2 2 2 2 3 5 5 6 6 7 7 7 8 7 7 6 6 6 7 6 5 4 5 5 5 4 4 2
5 5 7 4 3 5 6 3 2 3 4 4 3 2 1 3 2 2 2 2 3 4 5 5 6 7 7 7 7 6 6 6 6 6 6 5 5 5 5 6 5 4 3 2
7 7 6 4 5 5 5 4 4 4 3 4 3 2 2 2 2 1 2 2 2 3 4 3 5 7 8 6 6 7 7 6 5 5 4 5 6 5 4 4 4 4 3 3
3 5 4 3 3 2 3 4 4 4 3 4 3 3 2 2 1 1 1 2 2 3 3 3 3 5 6 5 6 8 8 6 6 6 5 4 4 4 4 4 4 4 4 3
4 5 3 4 3 3 2 3 3 3 3 4 4 3 3 2 2 2 1 1 2 3 3 3 3 3 3 5 6 7 6 6 5 5 6 5 4 3 4 4 5 6 5 4
7 7 6 6 5 4 4 4 4 3 1 2 3 3 3 2 3 2 2 2 2 3 3 2 3 3 2 4 6 7 6 6 5 5 5 5 5 4 3 4 5 6 6 6
6 5 5 4 4 4 5 5 4 4 4 2 2 3 3 2 2 2 3 3 3 4 3 3 3 3 2 3 5 6 6 6 5 5 5 5 5 6 4 2 4 4 5 6
4 4 3 3 3 3 4 4 3 2 2 2 2 2 3 2 2 2 2 3 4 4 3 3 3 3 3 4 5 5 5 6 6 5 5 5 5 5 5 5 4 1 1 4
4 5 6 5 4 3 3 4 3 2 1 1 1 3 3 3 2 2 2 2 3 3 3 3 3 3 2 4 5 5 4 4 5 5 5 5 5 5 5 5 5 3 2 2
4 2 4 6 6 5 4 4 4 2 1 2 1 2 3 3 2 2 1 3 3 3 3 3 3 3 3 4 4 3 4 6 5 5 4 4 4 5 5 5 5 4 4 3
3 4 4 5 5 5 5 5 5 4 3 3 2 2 3 4 3 2 1 1 2 2 2 3 3 2 3 4 4 3 3 4 6 4 4 5 5 5 5 5 5 4 4 4
6 7 7 7 7 5 4 4 5 4 4 3 3 4 5 5 4 3 2 2 2 2 1 1 2 3 3 3 3 3 3 3 3 4 4 4 4 5 5 5 5 5 3 3
4 5 5 5 5 5 5 4 4 4 3 4 4 4 4 4 4 3 3 3 2 1 2 1 3 3 3 3 4 3 3 4 3 3 3 4 4 4 4 5 4 4 4 4
4 4 4 5 5 5 4 3 3 3 3 4 4 4 3 3 3 3 4 2 2 2 2 2 3 3 2 3 4 3 3 4 4 3 3 4 4 4 4 4 4 4 4 4
5 5 4 4 4 4 5 5 4 4 4 4 5 5 4 3 3 4 4 2 1 1 1 3 2 2 2 3 4 3 3 3 3 3 4 4 4 4 4 4 4 4 4 4
4 5 5 5 5 4 4 4 4 4 4 3 4 4 4 3 3 2 2 3 2 2 1 1 2 3 4 4 2 3 3 3 3 3 3 4 4 4 4 4 4 4 4 4
3 4 5 5 5 5 4 4 4 4 4 4 4 4 4 3 3 3 2 2 2 2 2 2 3 4 5 3 3 3 3 3 3 3 3 3 4 4 4 4 4 4 4 4
2 4 4 4 5 5 4 3 3 3 3 3 3 4 4 3 1 1 2 3 3 3 2 3 5 5 5 2 3 3 3 3 3 3 3 3 3 3 3 4 4 4 4 4
2 3 4 5 4 4 4 3 3 2 2 1 1 2 2 3 3 2 2 3 4 3 2 3 5 5 3 2 3 3 3 3 3 3 3 3 3 3 3 4 4 4 4 4
2 2 2 3 3 3 3 3 3 2 2 1 1 1 1 1 2 2 2 2 3 4 3 2 3 3 2 2 3 3 3 3 3 3 3 3 4 4 3 3 4 4 4 4
2 2 2 1 1 2 3 3 3 3 3 3 2 1 2 2 2 2 2 2 2 3 2 2 2 3 3 3 3 3 3 3 3 3 3 3 3 4 4 4 4 4 4 4
Wind_Direction
232 238 214 224 234 228 206 194 193 224 216 231 222 209 204 193 176 161 172 178 179 183 187 186 183 184 187 188 190 181 169 172 184 183 174 164 158 157 151 145 146 145 136 126
289 265 239 260 248 237 228 215 209 209 243 250 228 188 194 190 173 175 184 188 188 187 186 187 188 188 187 189 191 177 175 183 183 172 165 163 162 155 148 147 148 142 145 141
258 291 356 259 231 215 214 213 184 211 241 254 167 185 194 189 180 184 193 192 188 190 193 193 191 185 186 190 180 171 176 181 177 170 167 173 167 155 156 162 156 146 158 155
190 75 234 245 240 195 180 209 207 204 228 200 191 202 192 171 172 181 187 198 203 198 199 196 189 185 181 173 171 172 175 178 175 168 169 168 160 161 165 160 156 157 167 170
145 216 265 288 276 187 172 238 238 201 210 209 144 83 352 235 189 187 190 196 203 202 197 185 181 178 167 169 171 170 177 181 181 174 170 167 168 170 162 153 155 155 152 153
154 185 231 246 265 241 128 246 274 201 189 176 114 133 251 258 224 191 179 187 196 191 179 173 181 170 162 169 172 183 187 186 179 171 172 174 175 167 153 150 155 147 132 138
184 211 252 255 271 91 151 238 265 203 189 169 177 207 226 213 203 192 190 203 184 173 182 188 177 165 169 171 187 193 180 169 166 171 174 172 165 156 151 150 144 141 139 133
173 201 244 254 134 170 212 221 190 175 174 173 195 218 181 176 189 184 197 197 176 175 193 191 171 166 171 189 195 173 159 159 165 169 170 165 156 154 150 148 146 151 144 129
189 213 237 210 194 210 179 178 186 169 172 169 163 156 152 175 200 212 197 194 186 174 183 190 178 174 182 196 175 160 156 161 163 157 155 149 153 154 146 150 156 163 158 158
206 245 248 245 219 206 191 182 178 165 160 158 156 164 161 171 194 217 216 191 175 153 162 191 188 178 184 176 160 156 159 159 153 148 142 134 138 148 150 158 164 166 167 170
222 253 267 269 236 205 172 150 142 139 144 161 154 161 170 178 198 205 213 207 163 162 172 195 178 170 168 155 149 150 153 150 146 147 145 136 130 133 149 162 172 171 177 173
218 218 201 234 244 195 164 167 160 150 132 157 164 168 170 178 193 185 187 177 163 159 154 164 153 147 145 149 151 150 150 152 153 149 147 147 141 120 89 116 127 142 147 150
207 215 205 227 242 196 173 172 164 158 167 170 172 170 169 175 185 168 176 176 177 178 164 151 144 146 146 139 143 149 158 159 155 153 155 158 158 157 147 96 86 110 133 142
206 180 200 218 209 183 166 159 139 122 147 157 159 152 152 149 147 148 182 197 181 165 149 146 149 164 168 145 140 145 149 154 154 158 161 164 169 169 164 157 152 149 141 151
249 214 199 192 173 148 138 130 119 100 91 114 139 144 147 152 168 186 196 167 145 143 143 147 156 178 162 146 144 147 147 155 155 154 157 162 164 161 160 160 162 162 138 139
245 221 177 164 165 162 151 146 150 170 165 163 145 163 163 163 167 164 146 143 143 159 166 163 180 189 155 146 144 145 153 150 150 154 156 157 159 160 163 165 168 170 179 184
195 212 190 173 176 176 175 176 174 179 179 181 183 165 144 127 118 109 95 128 160 169 166 172 188 167 147 151 152 155 150 152 147 147 161 169 171 175 174 172 175 180 192 178
203 202 191 181 178 178 179 171 165 165 177 187 169 146 146 147 154 154 138 98 78 52 28 177 150 136 139 146 148 148 149 150 156 161 163 167 173 176 175 178 180 181 179 161
205 195 185 179 177 172 171 170 171 170 171 166 159 157 161 163 164 161 141 122 127 166 289 251 132 130 142 150 136 140 144 148 151 155 158 159 163 168 173 178 178 175 167 156
185 179 172 171 164 159 163 165 158 154 157 154 148 145 143 163 166 156 142 145 200 222 225 166 144 144 150 147 131 143 149 151 153 153 154 161 164 164 164 168 168 164 159 157
179 173 162 157 152 147 152 152 154 159 164 161 160 163 165 174 166 155 149 170 254 246 161 141 142 149 151 145 136 144 150 152 154 157 161 163 160 160 160 162 162 163 162 158
165 160 154 150 148 153 158 150 144 144 151 154 151 146 145 156 161 151 168 194 199 169 148 158 160 159 158 146 148 150 153 155 157 156 158 162 161 163 167 164 163 164 165 165
166 161 156 157 161 162 149 143 139 140 150 161 163 162 166 172 170 165 190 211 176 162 154 170 159 153 149 143 150 152 154 154 156 160 166 167 166 168 169 168 169 166 165 166
158 157 154 151 144 141 147 157 144 140 149 166 173 172 167 160 170 211 186 175 165 154 152 152 146 146 139 138 144 151 158 158 157 159 159 158 158 161 163 163 165 168 167 165
156 151 144 141 144 158 160 148 130 120 122 144 173 177 171 168 176 186 170 169 168 158 154 158 154 148 142 143 152 160 164 163 159 158 159 158 160 162 163 164 166 168 169 171
152 167 174 173 171 169 162 153 151 157 152 157 195 192 163 150 151 156 160 168 171 165 159 157 160 156 151 150 152 156 158 156 149 151 161 165 164 162 162 165 164 167 168 169
115 125 122 112 137 163 164 166 168 175 177 179 191 195 180 167 161 166 168 167 167 166 166 161 158 156 154 152 151 151 149 146 149 155 159 161 162 163 164 164 164 163 164 165
Height
1534 1530 1530 1531 1530 1530 1533 1537 1543 1539 1535 1530 1527 1525 1525 1525 1526 1526 1527 1528 1530 1532 1534 1536 1538 1539 1541 1543 1544 1546 1548 1549 1550 1552 1553 1554 1555 1556 1558 1559 1559 1560 1561 1561
1534 1529 1528 1530 1527 1527 1527 1529 1530 1531 1531 1524 1523 1524 1525 1525 1525 1526 1526 1527 1529 1530 1532 1534 1535 1537 1539 1541 1542 1544 1545 1547 1549 1550 1551 1552 1553 1555 1556 1557 1558 1559 1559 1559
1542 1533 1532 1536 1527 1525 1525 1524 1526 1531 1528 1522 1523 1523 1523 1523 1524 1524 1525 1526 1527 1528 1530 1531 1533 1534 1536 1538 1540 1542 1543 1545 1546 1548 1549 1550 1552 1553 1554 1555 1556 1557 1557 1558
1543 1540 1546 1531 1517 1517 1520 1522 1520 1521 1520 1520 1520 1520 1520 1521 1522 1523 1523 1524 1526 1526 1528 1529 1531 1533 1534 1536 1538 1539 1541 1543 1544 1546 1547 1548 1549 1551 1552 1553 1553 1554 1555 1556
1545 1545 1538 1525 1517 1516 1520 1522 1518 1518 1518 1518 1519 1519 1520 1520 1521 1521 1522 1523 1523 1524 1526 1527 1529 1531 1532 1534 1535 1537 1538 1540 1542 1543 1545 1546 1547 1548 1549 1550 1551 1552 1553 1553
1541 1542 1542 1527 1514 1512 1517 1523 1516 1515 1516 1516 1517 1523 1521 1519 1519 1519 1520 1521 1522 1522 1524 1525 1527 1529 1530 1531 1533 1534 1535 1537 1539 1541 1542 1543 1544 1546 1547 1548 1549 1550 1551 1551
1538 1539 1531 1517 1512 1513 1527 1525 1514 1513 1513 1514 1515 1517 1517 1517 1517 1518 1518 1519 1520 1521 1522 1523 1525 1526 1527 1529 1530 1532 1534 1535 1537 1538 1540 1541 1542 1543 1545 1546 1547 1548 1548 1549
1534 1537 1532 1511 1512 1516 1516 1512 1511 1511 1512 1513 1513 1513 1513 1514 1515 1516 1516 1517 1518 1519 1520 1522 1523 1524 1525 1526 1528 1530 1531 1533 1534 1536 1537 1539 1540 1541 1542 1543 1544 1545 1546 1547
1522 1522 1512 1509 1509 1509 1509 1509 1510 1510 1510 1511 1511 1511 1512 1512 1513 1514 1514 1515 1516 1517 1518 1520 1521 1522 1522 1524 1526 1527 1528 1530 1532 1533 1535 1536 1537 1538 1539 1541 1542 1542 1543 1544
1514 1511 1508 1508 1507 1507 1508 1508 1508 1508 1509 1509 1509 1510 1510 1510 1511 1511 1512 1513 1514 1515 1516 1517 1518 1519 1520 1522 1523 1525 1526 1527 1529 1530 1532 1534 1535 1536 1537 1538 1539 1540 1540 1541
1511 1507 1506 1505 1505 1506 1506 1506 1506 1507 1507 1507 1508 1508 1508 1508 1509 1509 1510 1511 1512 1513 1513 1515 1516 1517 1518 1520 1521 1522 1524 1525 1526 1528 1529 1531 1532 1533 1534 1535 1536 1537 1538 1539
1507 1503 1503 1503 1503 1503 1504 1504 1504 1505 1505 1506 1506 1506 1506 1506 1506 1507 1507 1509 1510 1510 1511 1512 1513 1514 1516 1517 1518 1520 1521 1522 1524 1525 1527 1528 1529 1531 1532 1533 1534 1535 1536 1537
1498 1498 1499 1500 1500 1501 1501 1501 1502 1503 1503 1503 1504 1504 1504 1504 1504 1505 1505 1506 1507 1508 1509 1510 1511 1512 1513 1515 1516 1517 1518 1519 1521 1523 1524 1526 1527 1528 1529 1531 1532 1533 1534 1535
1494 1496 1497 1497 1497 1498 1499 1499 1500 1500 1501 1501 1502 1502 1502 1502 1502 1502 1503 1504 1505 1506 1506 1507 1508 1510 1511 1512 1513 1515 1516 1517 1519 1520 1522 1523 1524 1525 1526 1527 1528 1529 1531 1532
1491 1492 1493 1493 1494 1495 1496 1497 1497 1498 1498 1499 1499 1500 1500 1500 1500 1500 1501 1502 1503 1503 1504 1505 1506 1507 1509 1510 1511 1512 1513 1515 1516 1518 1519 1521 1522 1523 1524 1524 1525 1526 1528 1529
1488 1488 1489 1490 1491 1492 1493 1494 1494 1495 1496 1496 1497 1497 1497 1498 1498 1498 1499 1500 1501 1501 1501 1502 1503 1505 1506 1507 1508 1510 1511 1512 1514 1515 1516 1518 1519 1520 1520 1521 1522 1523 1524 1525
1485 1485 1485 1486 1487 1489 1490 1491 1491 1492 1493 1494 1494 1494 1495 1495 1496 1496 1497 1498 1498 1499 1499 1500 1501 1502 1503 1505 1506 1507 1508 1509 1511 1512 1513 1515 1516 1517 1517 1518 1519 1520 1521 1522
1481 1481 1482 1483 1484 1485 1487 1488 1488 1489 1490 1491 1491 1492 1492 1493 1493 1494 1495 1496 1496 1496 1497 1498 1499 1500 1501 1502 1503 1504 1505 1506 1507 1509 1510 1511 1512 1514 1515 1515 1516 1517 1518 1519
1477 1478 1479 1480 1482 1483 1484 1485 1485 1486 1487 1488 1488 1489 1490 1490 1491 1492 1493 1494 1494 1494 1494 1495 1497 1497 1498 1499 1501 1502 1503 1503 1505 1506 1507 1508 1509 1510 1511 1512 1513 1514 1515 1515
1473 1474 1476 1477 1479 1480 1481 1482 1482 1483 1484 1485 1485 1486 1487 1488 1489 1490 1490 1491 1491 1492 1493 1493 1494 1495 1496 1497 1498 1499 1500 1500 1501 1502 1504 1505 1506 1507 1508 1508 1509 1510 1511 1512
1469 1471 1472 1474 1475 1477 1478 1479 1480 1480 1481 1482 1483 1483 1484 1485 1486 1487 1487 1488 1489 1490 1491 1491 1492 1493 1493 1494 1495 1496 1497 1497 1498 1499 1500 1501 1502 1503 1504 1505 1506 1506 1507 1508
1466 1467 1469 1470 1472 1473 1475 1476 1477 1477 1478 1480 1480 1481 1482 1482 1483 1484 1485 1485 1486 1487 1488 1488 1489 1490 1491 1492 1492 1493 1494 1495 1495 1496 1497 1498 1499 1500 1500 1501 1502 1503 1503 1504
1463 1464 1466 1467 1469 1470 1472 1473 1474 1474 1476 1477 1478 1478 1479 1480 1480 1481 1481 1483 1484 1484 1485 1486 1486 1487 1488 1489 1489 1490 1491 1492 1492 1493 1494 1495 1495 1496 1497 1498 1498 1499 1500 1500
1461 1462 1463 1465 1466 1467 1469 1470 1471 1472 1473 1474 1475 1476 1477 1477 1478 1479 1479 1480 1481 1482 1482 1483 1484 1484 1485 1486 1486 1487 1488 1489 1489 1490 1491 1492 1493 1493 1494 1495 1495 1496 1496 1497
1459 1460 1461 1462 1463 1465 1466 1467 1469 1470 1471 1472 1473 1473 1474 1475 1475 1476 1476 1477 1478 1479 1479 1480 1481 1481 1482 1483 1483 1484 1485 1486 1486 1487 1488 1489 1490 1490 1491 1492 1492 1493 1493 1494
1457 1458 1459 1460 1462 1463 1464 1465 1466 1467 1468 1469 1469 1470 1471 1472 1473 1473 1474 1474 1475 1476 1476 1477 1478 1478 1479 1479 1480 1481 1482 1482 1483 1484 1485 1486 1486 1487 1488 1488 1489 1489 1490 1490
1456 1456 1457 1458 1459 1461 1462 1463 1463 1464 1465 1465 1466 1467 1468 1469 1469 1470 1470 1471 1472 1472 1473 1474 1474 1475 1476 1477 1477 1478 1479 1479 1480 1481 1482 1483 1483 1483 1484 1485 1485 1486 1486 1487